Location: Krasnoyarskiy Pitomnik
(51.1333°N, 71.6167°E)
Time: 21:52:06
(UTC+00:00)

A-11 Canister half - Pass Details

Date: 28 April 2024
Orbit: 1525 x 1683 km, 47.3° (Epoch: 19 May)

Event Time Altitude Azimuth Distance (km) Brightness Sun altitude
Rises 03:55:30 0° 282° (WNW) 4,913 11.2 36.3°
Reaches altitude 10° 03:58:43 10° 278° (W) 3,935 10.8 36.8°
Maximum altitude 04:08:29 56° 204° (SSW) 1,947 10.1 38.1°
Drops below altitude 10° 04:18:14 10° 130° (SE) 3,925 12.3 39.5°
Sets 04:21:26 0° 127° (SE) 4,899 12.5 39.9°
